Location: Fosso Corella
(43.9167°N, 11.5667°E)
Time: 18:19:44
(UTC+00:00)

CZ-2D R/B - Pass Details

Date: 07 June 2020
Orbit: 791 x 846 km, 98.7° (Epoch: 04 July)

Event Time Altitude Azimuth Distance (km) Brightness Sun altitude
Rises 00:25:28 0° 19° (NNE) 3,305 6.9 -21.2°
Reaches altitude 10° 00:27:54 10° 26° (NNE) 2,368 5.7 -21.1°
Maximum altitude 00:32:55 46° 99° (E) 1,051 2.7 -20.8°
Enters shadow 00:35:02 30° 153° (SSE) 1,384 3.0 -20.7°
